Time,TemperatureF,DewpointF,PressureIn,WindDirection,WindDirectionDegrees,WindSpeedMPH,WindSpeedGustMPH,Humidity,HourlyPrecipIn,Conditions,Clouds,dailyrainin,SolarRadiationWatts/m^2,SoftwareType,DateUTC
2013-03-20 00:03:00,49.1,44.4,30.02,NE,52,2.0,6.0,84,0.00,,,0.08,0.0,meteohub,2013-03-20 07:03:00,
2013-03-20 00:08:00,49.3,44.6,30.02,NE,53,3.0,5.0,84,0.00,,,0.08,0.0,meteohub,2013-03-20 07:08:00,
2013-03-20 00:13:00,49.3,44.6,30.02,NE,52,2.0,5.0,84,0.00,,,0.08,0.0,meteohub,2013-03-20 07:13:00,
2013-03-20 00:18:00,49.5,44.8,30.03,NE,52,1.0,5.0,84,0.00,,,0.08,0.0,meteohub,2013-03-20 07:18:00,
2013-03-20 00:23:00,49.5,45.1,30.03,NE,39,2.0,5.0,85,0.00,,,0.08,0.0,meteohub,2013-03-20 07:23:00,
2013-03-20 00:28:00,49.5,45.1,30.03,NE,35,2.0,4.0,85,0.00,,,0.08,0.0,meteohub,2013-03-20 07:28:00,
2013-03-20 00:33:00,49.5,45.1,30.03,NE,55,2.0,4.0,85,0.00,,,0.08,0.0,meteohub,2013-03-20 07:33:00,
2013-03-20 00:38:00,49.5,45.5,30.03,NE,43,1.0,4.0,86,0.00,,,0.08,0.0,meteohub,2013-03-20 07:38:00,
2013-03-20 00:43:00,49.5,45.5,30.03,NE,40,1.0,4.0,86,0.00,,,0.08,0.0,meteohub,2013-03-20 07:43:00,
2013-03-20 00:48:00,49.6,45.7,30.03,NE,53,0.0,3.0,86,0.00,,,0.08,0.0,meteohub,2013-03-20 07:48:00,
2013-03-20 00:53:00,49.6,45.9,30.03,NE,46,3.0,3.0,87,0.00,,,0.08,0.0,meteohub,2013-03-20 07:53:00,
2013-03-20 00:58:00,49.6,45.9,30.03,NE,50,2.0,4.0,87,0.00,,,0.08,0.0,meteohub,2013-03-20 07:58:00,
2013-03-20 01:03:00,49.6,46.2,30.02,NE,39,2.0,4.0,88,0.00,,,0.08,0.0,meteohub,2013-03-20 08:03:00,
2013-03-20 01:08:00,49.5,46.0,30.02,NNE,12,4.0,4.0,88,0.00,,,0.08,0.0,meteohub,2013-03-20 08:08:00,
2013-03-20 01:13:00,49.5,46.0,30.02,NNE,23,1.0,4.0,88,0.00,,,0.08,0.0,meteohub,2013-03-20 08:13:00,
2013-03-20 01:18:00,49.6,46.2,30.02,NNE,28,2.0,5.0,88,0.00,,,0.08,0.0,meteohub,2013-03-20 08:18:00,
2013-03-20 01:23:00,49.6,46.2,30.03,NE,54,3.0,5.0,88,0.00,,,0.08,0.0,meteohub,2013-03-20 08:23:00,
2013-03-20 01:28:00,49.8,46.4,30.03,NNE,21,3.0,5.0,88,0.00,,,0.08,0.0,meteohub,2013-03-20 08:28:00,
2013-03-20 01:33:00,50.0,46.6,30.03,ENE,71,0.0,5.0,88,0.00,,,0.08,0.0,meteohub,2013-03-20 08:33:00,
2013-03-20 01:38:00,50.0,46.9,30.04,WSW,246,2.0,4.0,89,0.00,,,0.08,0.0,meteohub,2013-03-20 08:38:00,
2013-03-20 01:43:00,49.8,46.8,30.04,West,264,2.0,5.0,89,0.00,,,0.08,0.0,meteohub,2013-03-20 08:43:00,
2013-03-20 01:48:00,49.8,46.8,30.04,West,269,2.0,12.0,89,0.00,,,0.08,0.0,meteohub,2013-03-20 08:48:00,
2013-03-20 01:53:00,49.6,46.6,30.04,WSW,250,1.0,12.0,89,0.00,,,0.08,0.0,meteohub,2013-03-20 08:53:00,
2013-03-20 01:58:00,49.6,46.6,30.04,WNW,284,0.0,12.0,89,0.00,,,0.08,0.0,meteohub,2013-03-20 08:58:00,
2013-03-20 02:03:00,49.6,46.6,30.03,WSW,244,2.0,8.0,89,0.00,,,0.08,0.0,meteohub,2013-03-20 09:03:00,
2013-03-20 02:08:00,49.5,46.6,30.04,WSW,246,1.0,8.0,90,0.00,,,0.08,0.0,meteohub,2013-03-20 09:08:00,
2013-03-20 02:13:00,49.6,46.8,30.03,West,274,2.0,7.0,90,0.00,,,0.08,0.0,meteohub,2013-03-20 09:13:00,
2013-03-20 02:18:00,49.6,46.8,30.03,West,274,1.0,7.0,90,0.01,,,0.09,0.0,meteohub,2013-03-20 09:18:00,
2013-03-20 02:23:00,49.6,46.8,30.04,WNW,292,5.0,7.0,90,0.01,,,0.09,0.0,meteohub,2013-03-20 09:23:00,
2013-03-20 02:28:00,49.6,46.6,30.04,WNW,298,1.0,4.0,89,0.01,,,0.09,0.0,meteohub,2013-03-20 09:28:00,
2013-03-20 02:33:00,49.6,46.2,30.03,WNW,292,1.0,6.0,88,0.01,,,0.09,0.0,meteohub,2013-03-20 09:33:00,
2013-03-20 02:38:00,49.8,46.8,30.03,WNW,292,0.0,6.0,89,0.01,,,0.09,0.0,meteohub,2013-03-20 09:38:00,
2013-03-20 02:43:00,49.6,46.6,30.03,West,269,1.0,6.0,89,0.01,,,0.09,0.0,meteohub,2013-03-20 09:43:00,
2013-03-20 02:48:00,49.6,46.6,30.03,West,263,1.0,3.0,89,0.01,,,0.09,0.0,meteohub,2013-03-20 09:48:00,
2013-03-20 02:53:00,49.6,46.6,30.02,West,263,0.0,3.0,89,0.01,,,0.09,0.0,meteohub,2013-03-20 09:53:00,
2013-03-20 02:58:00,49.6,46.6,30.02,West,263,1.0,7.0,89,0.01,,,0.09,0.0,meteohub,2013-03-20 09:58:00,
2013-03-20 03:03:00,49.6,46.6,30.02,WSW,248,1.0,7.0,89,0.01,,,0.09,0.0,meteohub,2013-03-20 10:03:00,
2013-03-20 03:08:00,49.6,46.6,30.02,WSW,246,3.0,5.0,89,0.01,,,0.09,0.0,meteohub,2013-03-20 10:08:00,
2013-03-20 03:13:00,49.6,46.2,30.02,WNW,296,4.0,5.0,88,0.00,,,0.09,0.0,meteohub,2013-03-20 10:13:00,
2013-03-20 03:18:00,49.6,46.2,30.02,WNW,290,7.0,7.0,88,0.00,,,0.09,0.0,meteohub,2013-03-20 10:18:00,
2013-03-20 03:23:00,49.8,46.0,30.02,West,279,1.0,7.0,87,0.00,,,0.09,0.0,meteohub,2013-03-20 10:23:00,
2013-03-20 03:28:00,49.8,46.0,30.02,West,280,4.0,7.0,87,0.00,,,0.09,0.0,meteohub,2013-03-20 10:28:00,
2013-03-20 03:33:00,49.8,46.0,30.02,West,274,1.0,7.0,87,0.00,,,0.09,0.0,meteohub,2013-03-20 10:33:00,
2013-03-20 03:39:00,50.0,46.2,30.02,West,281,5.0,9.0,87,0.00,,,0.09,0.0,meteohub,2013-03-20 10:39:00,
2013-03-20 03:44:00,50.0,46.0,30.02,West,279,4.0,13.0,86,0.00,,,0.09,0.0,meteohub,2013-03-20 10:44:00,
2013-03-20 03:49:00,50.0,46.6,30.02,WNW,285,0.0,13.0,88,0.00,,,0.09,0.0,meteohub,2013-03-20 10:49:00,
2013-03-20 03:54:00,50.0,46.6,30.02,WNW,294,0.0,13.0,88,0.00,,,0.09,0.0,meteohub,2013-03-20 10:54:00,
2013-03-20 03:59:00,50.2,46.4,30.02,NW,319,0.0,10.0,87,0.00,,,0.09,0.0,meteohub,2013-03-20 10:59:00,
2013-03-20 04:04:00,50.2,46.8,30.02,West,263,1.0,4.0,88,0.00,,,0.09,0.0,meteohub,2013-03-20 11:04:00,
2013-03-20 04:09:00,49.8,46.4,30.03,SW,236,0.0,3.0,88,0.00,,,0.09,0.0,meteohub,2013-03-20 11:09:00,
2013-03-20 04:14:00,49.8,46.8,30.02,SW,236,0.0,3.0,89,0.00,,,0.09,0.0,meteohub,2013-03-20 11:14:00,
2013-03-20 04:19:00,50.0,46.9,30.02,West,277,1.0,3.0,89,0.00,,,0.09,0.0,meteohub,2013-03-20 11:19:00,
2013-03-20 04:24:00,50.2,46.8,30.02,WNW,296,0.0,2.0,88,0.00,,,0.09,0.0,meteohub,2013-03-20 11:24:00,
2013-03-20 04:29:00,50.2,46.8,30.02,West,260,0.0,4.0,88,0.00,,,0.09,0.0,meteohub,2013-03-20 11:29:00,
2013-03-20 04:34:00,50.4,46.9,30.02,NW,307,2.0,4.0,88,0.00,,,0.09,0.0,meteohub,2013-03-20 11:34:00,
2013-03-20 04:39:00,50.5,47.1,30.01,WNW,284,4.0,5.0,88,0.00,,,0.09,0.0,meteohub,2013-03-20 11:39:00,
2013-03-20 04:44:00,50.5,47.1,30.01,West,265,0.0,7.0,88,0.00,,,0.09,0.0,meteohub,2013-03-20 11:44:00,
2013-03-20 04:49:00,50.5,47.1,30.01,WNW,290,0.0,7.0,88,0.00,,,0.09,0.0,meteohub,2013-03-20 11:49:00,
2013-03-20 04:54:00,50.5,47.1,30.01,WNW,288,0.0,7.0,88,0.00,,,0.09,0.0,meteohub,2013-03-20 11:54:00,
2013-03-20 04:59:00,50.2,46.8,30.01,West,261,1.0,4.0,88,0.00,,,0.09,0.0,meteohub,2013-03-20 11:59:00,
2013-03-20 05:04:00,50.2,47.1,30.01,WSW,257,0.0,3.0,89,0.00,,,0.09,0.0,meteohub,2013-03-20 12:04:00,
2013-03-20 05:09:00,50.0,46.9,30.01,WSW,257,0.0,3.0,89,0.00,,,0.09,0.0,meteohub,2013-03-20 12:09:00,
2013-03-20 05:14:00,49.8,46.8,30.00,WSW,257,0.0,3.0,89,0.00,,,0.09,0.0,meteohub,2013-03-20 12:14:00,
2013-03-20 05:19:00,49.8,46.8,30.00,WSW,254,0.0,2.0,89,0.00,,,0.09,0.0,meteohub,2013-03-20 12:19:00,
2013-03-20 05:24:00,50.2,46.8,30.00,WSW,254,0.0,2.0,88,0.00,,,0.09,0.0,meteohub,2013-03-20 12:24:00,
2013-03-20 05:29:00,50.4,46.9,30.00,WSW,254,0.0,2.0,88,0.00,,,0.09,0.0,meteohub,2013-03-20 12:29:00,
2013-03-20 05:34:00,50.4,46.9,30.00,SE,132,1.0,2.0,88,0.00,,,0.09,0.0,meteohub,2013-03-20 12:34:00,
2013-03-20 05:39:00,50.4,46.9,30.00,SE,138,0.0,3.0,88,0.00,,,0.09,0.0,meteohub,2013-03-20 12:39:00,
2013-03-20 05:44:00,50.4,47.3,30.00,South,181,0.0,3.0,89,0.00,,,0.09,0.0,meteohub,2013-03-20 12:44:00,
2013-03-20 05:49:00,50.4,47.3,30.00,SSE,155,3.0,3.0,89,0.00,,,0.09,0.0,meteohub,2013-03-20 12:49:00,
2013-03-20 05:54:00,50.5,47.5,30.00,SSE,155,0.0,3.0,89,0.00,,,0.09,0.0,meteohub,2013-03-20 12:54:00,
2013-03-20 05:59:00,50.5,47.5,30.01,SSE,155,0.0,3.0,89,0.00,,,0.09,0.0,meteohub,2013-03-20 12:59:00,
2013-03-20 06:04:00,50.5,47.5,30.01,SSE,167,2.0,3.0,89,0.00,,,0.09,0.0,meteohub,2013-03-20 13:04:00,
2013-03-20 06:10:00,50.5,47.5,30.01,South,178,0.0,3.0,89,0.00,,,0.09,0.0,meteohub,2013-03-20 13:10:00,
2013-03-20 06:15:00,50.5,47.7,30.01,South,175,0.0,3.0,90,0.00,,,0.09,0.0,meteohub,2013-03-20 13:15:00,
2013-03-20 06:20:00,50.5,47.7,30.01,South,175,0.0,3.0,90,0.00,,,0.09,0.0,meteohub,2013-03-20 13:20:00,
2013-03-20 06:25:00,50.5,47.7,30.01,South,175,0.0,1.0,90,0.00,,,0.09,0.0,meteohub,2013-03-20 13:25:00,
2013-03-20 06:30:00,50.5,47.7,30.01,South,175,0.0,1.0,90,0.00,,,0.09,0.0,meteohub,2013-03-20 13:30:00,
2013-03-20 06:35:00,50.5,47.7,30.01,South,175,0.0,1.0,90,0.00,,,0.09,0.0,meteohub,2013-03-20 13:35:00,
2013-03-20 06:40:00,50.5,47.7,30.01,South,175,0.0,1.0,90,0.00,,,0.09,0.0,meteohub,2013-03-20 13:40:00,
2013-03-20 06:45:00,50.7,47.8,30.01,South,175,0.0,1.0,90,0.00,,,0.09,0.0,meteohub,2013-03-20 13:45:00,
2013-03-20 06:50:00,50.7,47.8,30.01,South,177,1.0,1.0,90,0.00,,,0.09,0.0,meteohub,2013-03-20 13:50:00,
2013-03-20 06:55:00,51.1,48.2,30.01,South,180,0.0,0.0,90,0.00,,,0.09,0.0,meteohub,2013-03-20 13:55:00,
2013-03-20 07:00:00,50.9,48.0,30.01,South,181,0.0,1.0,90,0.00,,,0.09,0.0,meteohub,2013-03-20 14:00:00,
2013-03-20 07:05:00,50.9,48.0,30.01,South,180,0.0,1.0,90,0.00,,,0.09,0.0,meteohub,2013-03-20 14:05:00,
2013-03-20 07:10:00,50.9,48.0,30.01,South,180,0.0,1.0,90,0.00,,,0.09,0.0,meteohub,2013-03-20 14:10:00,
2013-03-20 07:15:00,51.1,48.2,30.01,South,181,0.0,1.0,90,0.00,,,0.09,0.0,meteohub,2013-03-20 14:15:00,
2013-03-20 07:20:00,51.1,48.2,30.01,South,181,0.0,0.0,90,0.00,,,0.09,0.0,meteohub,2013-03-20 14:20:00,
2013-03-20 07:25:00,51.1,48.2,30.01,South,180,0.0,1.0,90,0.00,,,0.09,7.0,meteohub,2013-03-20 14:25:00,
2013-03-20 07:30:00,51.1,48.2,30.01,SSE,147,0.0,1.0,90,0.00,,,0.09,11.0,meteohub,2013-03-20 14:30:00,
2013-03-20 07:35:00,51.1,48.0,30.01,SE,146,0.0,2.0,89,0.00,,,0.09,11.0,meteohub,2013-03-20 14:35:00,
2013-03-20 07:40:00,51.3,48.4,30.01,SE,146,0.0,3.0,90,0.00,,,0.09,18.0,meteohub,2013-03-20 14:40:00,
2013-03-20 07:45:00,51.3,48.2,30.01,East,90,0.0,3.0,89,0.00,,,0.09,25.0,meteohub,2013-03-20 14:45:00,
2013-03-20 07:50:00,51.3,48.2,30.01,East,88,0.0,2.0,89,0.00,,,0.09,25.0,meteohub,2013-03-20 14:50:00,
2013-03-20 07:55:00,51.4,48.0,30.01,East,84,1.0,2.0,88,0.00,,,0.09,26.0,meteohub,2013-03-20 14:55:00,
2013-03-20 08:00:00,51.6,48.2,30.01,NE,36,0.0,2.0,88,0.00,,,0.09,25.0,meteohub,2013-03-20 15:00:00,
2013-03-20 08:05:00,51.6,48.2,30.01,NE,36,0.0,2.0,88,0.00,,,0.09,32.0,meteohub,2013-03-20 15:05:00,
2013-03-20 08:10:00,51.6,48.2,30.02,NE,36,0.0,2.0,88,0.00,,,0.09,28.0,meteohub,2013-03-20 15:10:00,
2013-03-20 08:15:00,52.0,48.9,30.01,SE,128,1.0,3.0,89,0.00,,,0.09,32.0,meteohub,2013-03-20 15:15:00,
2013-03-20 08:20:00,52.0,48.9,30.02,SE,146,0.0,3.0,89,0.00,,,0.09,26.0,meteohub,2013-03-20 15:20:00,
2013-03-20 08:25:00,52.0,48.9,30.02,SSE,150,2.0,3.0,89,0.00,,,0.09,32.0,meteohub,2013-03-20 15:25:00,
2013-03-20 08:30:00,52.0,48.9,30.02,SE,131,0.0,3.0,89,0.00,,,0.09,33.0,meteohub,2013-03-20 15:30:00,
2013-03-20 08:35:00,52.2,48.4,30.02,ESE,114,0.0,3.0,87,0.00,,,0.09,44.0,meteohub,2013-03-20 15:35:00,
2013-03-20 08:40:00,52.3,48.2,30.02,ESE,109,3.0,3.0,86,0.00,,,0.09,44.0,meteohub,2013-03-20 15:40:00,
2013-03-20 08:45:00,52.5,48.2,30.02,ESE,122,0.0,4.0,85,0.00,,,0.09,40.0,meteohub,2013-03-20 15:45:00,
2013-03-20 08:50:00,52.7,48.6,30.02,ESE,123,0.0,4.0,86,0.00,,,0.09,47.0,meteohub,2013-03-20 15:50:00,
2013-03-20 08:55:00,52.7,48.6,30.02,SSE,148,1.0,4.0,86,0.00,,,0.09,65.0,meteohub,2013-03-20 15:55:00,
2013-03-20 09:00:00,52.9,49.1,30.03,South,171,1.0,3.0,87,0.00,,,0.09,70.0,meteohub,2013-03-20 16:00:00,
2013-03-20 09:05:00,53.1,49.6,30.03,SSE,165,0.0,3.0,88,0.00,,,0.09,81.0,meteohub,2013-03-20 16:05:00,
2013-03-20 09:10:00,53.1,49.3,30.03,SE,144,0.0,4.0,87,0.00,,,0.09,125.0,meteohub,2013-03-20 16:10:00,
2013-03-20 09:15:00,53.2,49.1,30.03,South,169,1.0,4.0,86,0.00,,,0.09,93.0,meteohub,2013-03-20 16:15:00,
2013-03-20 09:20:00,53.4,49.1,30.03,SSE,163,1.0,5.0,85,0.00,,,0.09,95.0,meteohub,2013-03-20 16:20:00,
2013-03-20 09:25:00,53.6,49.3,30.03,SSE,167,1.0,5.0,85,0.00,,,0.09,100.0,meteohub,2013-03-20 16:25:00,
2013-03-20 09:30:00,53.8,49.1,30.03,South,171,1.0,5.0,84,0.00,,,0.09,128.0,meteohub,2013-03-20 16:30:00,
2013-03-20 09:35:00,54.0,48.6,30.03,SSE,168,3.0,6.0,82,0.00,,,0.09,111.0,meteohub,2013-03-20 16:35:00,
2013-03-20 09:40:00,54.1,48.0,30.03,SSE,151,0.0,6.0,80,0.00,,,0.09,123.0,meteohub,2013-03-20 16:40:00,
2013-03-20 09:45:00,54.3,48.2,30.03,SSE,162,3.0,6.0,80,0.00,,,0.09,158.0,meteohub,2013-03-20 16:45:00,
2013-03-20 09:51:00,54.9,48.7,30.03,SW,235,1.0,6.0,80,0.00,,,0.09,229.0,meteohub,2013-03-20 16:51:00,
2013-03-20 09:56:00,55.2,48.7,30.03,SE,146,2.0,6.0,79,0.00,,,0.09,216.0,meteohub,2013-03-20 16:56:00,
2013-03-20 10:01:00,55.2,48.7,30.03,SE,140,3.0,6.0,79,0.00,,,0.09,220.0,meteohub,2013-03-20 17:01:00,
2013-03-20 10:06:00,55.2,48.6,30.02,South,175,2.0,10.0,78,0.00,,,0.09,206.0,meteohub,2013-03-20 17:06:00,
2013-03-20 10:11:00,55.6,49.5,30.02,SE,144,3.0,10.0,80,0.00,,,0.09,246.0,meteohub,2013-03-20 17:11:00,
2013-03-20 10:16:00,55.9,49.5,30.02,South,184,3.0,10.0,79,0.00,,,0.09,188.0,meteohub,2013-03-20 17:16:00,
2013-03-20 10:21:00,55.8,49.6,30.02,SSE,165,2.0,7.0,80,0.00,,,0.09,160.0,meteohub,2013-03-20 17:21:00,
2013-03-20 10:26:00,55.9,49.8,30.03,SSE,151,4.0,7.0,80,0.00,,,0.09,163.0,meteohub,2013-03-20 17:26:00,
2013-03-20 10:31:00,56.3,49.8,30.03,SSE,151,1.0,7.0,79,0.00,,,0.09,227.0,meteohub,2013-03-20 17:31:00,
2013-03-20 10:36:00,56.7,49.8,30.03,South,191,6.0,6.0,78,0.00,,,0.09,255.0,meteohub,2013-03-20 17:36:00,
2013-03-20 10:42:00,56.8,49.3,30.02,SSE,156,6.0,7.0,76,0.00,,,0.09,269.0,meteohub,2013-03-20 17:42:00,
2013-03-20 10:47:00,57.2,48.6,30.02,SSW,200,11.0,15.0,73,0.00,,,0.09,330.0,meteohub,2013-03-20 17:47:00,
2013-03-20 10:52:00,57.4,48.4,30.02,SSW,205,10.0,15.0,72,0.00,,,0.09,188.0,meteohub,2013-03-20 17:52:00,
2013-03-20 10:57:00,57.4,48.0,30.02,NW,326,6.0,14.0,71,0.00,,,0.09,239.0,meteohub,2013-03-20 17:57:00,
2013-03-20 11:02:00,57.4,48.4,30.03,SSE,153,5.0,16.0,72,0.00,,,0.09,174.0,meteohub,2013-03-20 18:02:00,
2013-03-20 11:07:00,57.4,48.4,30.03,South,174,4.0,16.0,72,0.00,,,0.09,214.0,meteohub,2013-03-20 18:07:00,
2013-03-20 11:12:00,57.7,49.5,30.02,South,184,5.0,12.0,74,0.00,,,0.09,243.0,meteohub,2013-03-20 18:12:00,
2013-03-20 11:17:00,57.9,49.6,30.02,SW,225,12.0,12.0,74,0.00,,,0.09,190.0,meteohub,2013-03-20 18:17:00,
2013-03-20 11:22:00,57.9,49.6,30.03,SSW,198,5.0,18.0,74,0.00,,,0.09,139.0,meteohub,2013-03-20 18:22:00,
2013-03-20 11:27:00,57.9,49.6,30.03,SSW,203,10.0,18.0,74,0.00,,,0.09,163.0,meteohub,2013-03-20 18:27:00,
2013-03-20 11:32:00,58.1,50.2,30.03,SSE,150,7.0,18.0,75,0.00,,,0.09,192.0,meteohub,2013-03-20 18:32:00,
2013-03-20 11:37:00,58.3,51.1,30.03,SSW,211,5.0,16.0,77,0.00,,,0.09,153.0,meteohub,2013-03-20 18:37:00,
2013-03-20 11:42:00,57.9,50.7,30.03,WSW,248,15.0,17.0,77,0.00,,,0.09,121.0,meteohub,2013-03-20 18:42:00,
2013-03-20 11:47:00,57.6,50.0,30.03,WSW,256,9.0,19.0,76,0.00,,,0.09,130.0,meteohub,2013-03-20 18:47:00,
2013-03-20 11:52:00,57.4,50.2,30.03,SW,236,10.0,19.0,77,0.00,,,0.09,163.0,meteohub,2013-03-20 18:52:00,
2013-03-20 11:57:00,57.4,50.5,30.04,SW,220,11.0,17.0,78,0.00,,,0.09,134.0,meteohub,2013-03-20 18:57:00,
2013-03-20 12:02:00,57.0,50.5,30.04,WSW,242,10.0,17.0,79,0.00,,,0.09,116.0,meteohub,2013-03-20 19:02:00,
2013-03-20 12:08:00,56.8,50.7,30.04,WSW,241,16.0,17.0,80,0.00,,,0.09,102.0,meteohub,2013-03-20 19:08:00,
2013-03-20 12:12:00,56.5,50.7,30.04,SW,220,5.0,17.0,81,0.00,,,0.09,153.0,meteohub,2013-03-20 19:12:00,
2013-03-20 12:18:00,56.5,51.1,30.04,SSW,211,5.0,21.0,82,0.00,,,0.09,148.0,meteohub,2013-03-20 19:18:00,
2013-03-20 12:23:00,56.5,50.7,30.04,SW,227,9.0,21.0,81,0.00,,,0.09,158.0,meteohub,2013-03-20 19:23:00,
2013-03-20 12:28:00,56.7,50.9,30.04,South,187,6.0,20.0,81,0.00,,,0.09,144.0,meteohub,2013-03-20 19:28:00,
2013-03-20 12:33:00,56.7,51.3,30.04,WSW,252,10.0,18.0,82,0.00,,,0.09,158.0,meteohub,2013-03-20 19:33:00,
2013-03-20 12:38:00,56.1,51.6,30.05,SSW,208,5.0,16.0,85,0.00,,,0.09,100.0,meteohub,2013-03-20 19:38:00,
2013-03-20 12:43:00,55.2,51.8,30.05,WSW,246,5.0,16.0,88,0.00,,,0.09,88.0,meteohub,2013-03-20 19:43:00,
2013-03-20 12:48:00,54.9,52.0,30.05,West,269,5.0,15.0,90,0.00,,,0.09,90.0,meteohub,2013-03-20 19:48:00,
2013-03-20 12:53:00,54.7,52.2,30.05,WSW,238,8.0,15.0,91,0.00,,,0.09,114.0,meteohub,2013-03-20 19:53:00,
2013-03-20 12:58:00,54.3,52.0,30.04,SW,234,6.0,11.0,92,0.00,,,0.09,107.0,meteohub,2013-03-20 19:58:00,
2013-03-20 13:03:00,54.3,52.3,30.04,West,271,7.0,11.0,93,0.01,,,0.10,163.0,meteohub,2013-03-20 20:03:00,
2013-03-20 13:08:00,54.3,52.3,30.04,SW,223,9.0,13.0,93,0.01,,,0.10,183.0,meteohub,2013-03-20 20:08:00,
2013-03-20 13:13:00,54.3,52.3,30.05,South,182,12.0,15.0,93,0.01,,,0.10,163.0,meteohub,2013-03-20 20:13:00,
2013-03-20 13:18:00,54.3,52.7,30.04,SW,236,7.0,16.0,94,0.01,,,0.10,213.0,meteohub,2013-03-20 20:18:00,
2013-03-20 13:23:00,54.3,52.7,30.04,SSW,204,3.0,16.0,94,0.01,,,0.10,190.0,meteohub,2013-03-20 20:23:00,
2013-03-20 13:28:00,54.3,52.7,30.04,WSW,246,11.0,16.0,94,0.01,,,0.10,171.0,meteohub,2013-03-20 20:28:00,
2013-03-20 13:33:00,54.3,52.7,30.04,SW,232,10.0,15.0,94,0.01,,,0.10,181.0,meteohub,2013-03-20 20:33:00,
2013-03-20 13:38:00,54.1,52.5,30.04,SSW,206,3.0,17.0,94,0.01,,,0.10,146.0,meteohub,2013-03-20 20:38:00,
2013-03-20 13:43:00,54.1,52.5,30.04,SSW,207,11.0,17.0,94,0.02,,,0.11,255.0,meteohub,2013-03-20 20:43:00,
2013-03-20 13:48:00,54.1,52.7,30.04,SW,234,7.0,17.0,95,0.02,,,0.11,221.0,meteohub,2013-03-20 20:48:00,
2013-03-20 13:53:00,54.1,52.7,30.04,West,273,5.0,16.0,95,0.02,,,0.11,148.0,meteohub,2013-03-20 20:53:00,
2013-03-20 13:58:00,54.3,52.9,30.03,West,262,2.0,15.0,95,0.02,,,0.11,332.0,meteohub,2013-03-20 20:58:00,
2013-03-20 14:03:00,54.3,52.9,30.03,SSW,198,10.0,13.0,95,0.01,,,0.11,274.0,meteohub,2013-03-20 21:03:00,
2013-03-20 14:08:00,54.5,53.1,30.03,WSW,250,12.0,17.0,95,0.01,,,0.11,232.0,meteohub,2013-03-20 21:08:00,
2013-03-20 14:13:00,54.7,53.6,30.03,SW,229,7.0,20.0,96,0.02,,,0.12,183.0,meteohub,2013-03-20 21:13:00,
2013-03-20 14:18:00,54.7,53.2,30.03,SW,223,10.0,20.0,95,0.02,,,0.12,132.0,meteohub,2013-03-20 21:18:00,
2013-03-20 14:23:00,54.3,52.9,30.03,SW,215,10.0,19.0,95,0.02,,,0.12,151.0,meteohub,2013-03-20 21:23:00,
2013-03-20 14:28:00,54.3,52.9,30.03,SW,227,14.0,19.0,95,0.02,,,0.12,139.0,meteohub,2013-03-20 21:28:00,
2013-03-20 14:33:00,54.1,52.7,30.03,WSW,240,6.0,19.0,95,0.02,,,0.12,163.0,meteohub,2013-03-20 21:33:00,
2013-03-20 14:38:00,54.1,53.1,30.03,SW,236,6.0,18.0,96,0.01,,,0.12,163.0,meteohub,2013-03-20 21:38:00,
2013-03-20 14:43:00,54.3,53.2,30.03,SW,226,9.0,18.0,96,0.01,,,0.12,197.0,meteohub,2013-03-20 21:43:00,
2013-03-20 14:48:00,54.3,53.2,30.03,South,191,3.0,16.0,96,0.01,,,0.12,174.0,meteohub,2013-03-20 21:48:00,
2013-03-20 14:53:00,54.3,53.2,30.03,SW,230,7.0,14.0,96,0.01,,,0.12,172.0,meteohub,2013-03-20 21:53:00,
2013-03-20 14:58:00,54.3,53.2,30.03,SSW,196,4.0,15.0,96,0.01,,,0.12,135.0,meteohub,2013-03-20 21:58:00,
2013-03-20 15:03:00,54.3,53.2,30.03,SW,233,12.0,15.0,96,0.01,,,0.12,163.0,meteohub,2013-03-20 22:03:00,
2013-03-20 15:08:00,54.1,53.1,30.03,SW,220,15.0,15.0,96,0.00,,,0.12,167.0,meteohub,2013-03-20 22:08:00,
2013-03-20 15:13:00,54.1,53.1,30.03,SW,217,11.0,18.0,96,0.00,,,0.12,149.0,meteohub,2013-03-20 22:13:00,
2013-03-20 15:18:00,54.0,52.9,30.04,WSW,243,8.0,18.0,96,0.00,,,0.12,102.0,meteohub,2013-03-20 22:18:00,
2013-03-20 15:23:00,54.0,52.9,30.03,SW,231,13.0,18.0,96,0.00,,,0.12,116.0,meteohub,2013-03-20 22:23:00,
2013-03-20 15:28:00,53.8,52.7,30.04,West,266,8.0,16.0,96,0.00,,,0.12,105.0,meteohub,2013-03-20 22:28:00,
2013-03-20 15:33:00,53.8,52.9,30.04,SW,227,11.0,16.0,97,0.00,,,0.12,125.0,meteohub,2013-03-20 22:33:00,
2013-03-20 15:38:00,53.4,52.3,30.04,WSW,238,6.0,16.0,96,0.00,,,0.12,100.0,meteohub,2013-03-20 22:38:00,
2013-03-20 15:43:00,53.4,52.3,30.03,SSW,212,11.0,15.0,96,0.00,,,0.12,105.0,meteohub,2013-03-20 22:43:00,
2013-03-20 15:48:00,53.2,52.3,30.04,SW,225,5.0,14.0,97,0.00,,,0.12,121.0,meteohub,2013-03-20 22:48:00,
2013-03-20 15:53:00,53.2,52.3,30.04,WSW,250,3.0,14.0,97,0.00,,,0.12,113.0,meteohub,2013-03-20 22:53:00,
2013-03-20 15:59:00,53.2,52.3,30.04,WSW,238,6.0,14.0,97,0.00,,,0.12,158.0,meteohub,2013-03-20 22:59:00,
2013-03-20 16:04:00,53.2,52.3,30.04,WSW,240,4.0,14.0,97,0.00,,,0.12,160.0,meteohub,2013-03-20 23:04:00,
2013-03-20 16:09:00,53.4,52.5,30.04,WSW,239,4.0,13.0,97,0.00,,,0.12,123.0,meteohub,2013-03-20 23:09:00,
2013-03-20 16:14:00,53.4,52.5,30.04,SW,219,11.0,13.0,97,0.00,,,0.12,97.0,meteohub,2013-03-20 23:14:00,
2013-03-20 16:19:00,53.2,52.3,30.04,WSW,253,11.0,13.0,97,0.00,,,0.12,162.0,meteohub,2013-03-20 23:19:00,
2013-03-20 16:24:00,53.4,52.5,30.03,WSW,256,4.0,13.0,97,0.00,,,0.12,200.0,meteohub,2013-03-20 23:24:00,
2013-03-20 16:29:00,53.4,52.5,30.03,SW,236,12.0,13.0,97,0.01,,,0.13,162.0,meteohub,2013-03-20 23:29:00,
2013-03-20 16:34:00,53.2,52.3,30.03,SW,235,6.0,15.0,97,0.01,,,0.13,149.0,meteohub,2013-03-20 23:34:00,
2013-03-20 16:39:00,53.4,52.5,30.03,WSW,257,6.0,15.0,97,0.01,,,0.13,148.0,meteohub,2013-03-20 23:39:00,
2013-03-20 16:44:00,53.2,52.3,30.03,SW,222,10.0,15.0,97,0.01,,,0.13,144.0,meteohub,2013-03-20 23:44:00,
2013-03-20 16:49:00,53.2,52.3,30.03,WSW,237,6.0,15.0,97,0.01,,,0.13,125.0,meteohub,2013-03-20 23:49:00,
2013-03-20 16:54:00,53.2,52.3,30.03,West,265,6.0,14.0,97,0.01,,,0.13,104.0,meteohub,2013-03-20 23:54:00,
2013-03-20 16:59:00,53.2,52.3,30.03,WSW,242,6.0,14.0,97,0.01,,,0.13,91.0,meteohub,2013-03-20 23:59:00,
2013-03-20 17:04:00,53.2,52.3,30.02,WSW,254,3.0,14.0,97,0.01,,,0.13,102.0,meteohub,2013-03-21 00:04:00,
2013-03-20 17:09:00,53.1,52.2,30.02,WSW,243,9.0,14.0,97,0.01,,,0.00,91.0,meteohub,2013-03-21 00:09:00,
2013-03-20 17:14:00,53.1,52.2,30.02,WSW,240,9.0,13.0,97,0.01,,,0.00,86.0,meteohub,2013-03-21 00:14:00,
2013-03-20 17:19:00,53.1,52.2,30.02,SW,228,7.0,14.0,97,0.01,,,0.00,79.0,meteohub,2013-03-21 00:19:00,
2013-03-20 17:24:00,53.1,52.2,30.02,WSW,240,9.0,14.0,97,0.00,,,0.00,58.0,meteohub,2013-03-21 00:24:00,
2013-03-20 17:29:00,53.1,52.2,30.02,SW,220,7.0,14.0,97,0.00,,,0.00,53.0,meteohub,2013-03-21 00:29:00,
2013-03-20 17:34:00,52.9,52.0,30.02,SW,235,5.0,14.0,97,0.00,,,0.00,54.0,meteohub,2013-03-21 00:34:00,
2013-03-20 17:39:00,52.9,52.0,30.02,SW,236,3.0,12.0,97,0.00,,,0.00,49.0,meteohub,2013-03-21 00:39:00,
2013-03-20 17:44:00,52.9,52.0,30.02,WSW,248,2.0,12.0,97,0.00,,,0.00,40.0,meteohub,2013-03-21 00:44:00,
2013-03-20 17:49:00,52.9,52.0,30.03,WSW,239,2.0,12.0,97,0.00,,,0.00,49.0,meteohub,2013-03-21 00:49:00,
2013-03-20 17:54:00,52.7,51.8,30.02,WNW,284,3.0,13.0,97,0.00,,,0.00,40.0,meteohub,2013-03-21 00:54:00,
2013-03-20 17:59:00,52.5,51.6,30.03,WSW,239,3.0,13.0,97,0.00,,,0.00,30.0,meteohub,2013-03-21 00:59:00,
2013-03-20 18:04:00,52.5,51.6,30.03,WSW,239,1.0,12.0,97,0.00,,,0.00,32.0,meteohub,2013-03-21 01:04:00,
2013-03-20 18:09:00,52.5,51.6,30.03,SW,218,5.0,12.0,97,0.00,,,0.00,30.0,meteohub,2013-03-21 01:09:00,
2013-03-20 18:14:00,52.3,51.4,30.03,WSW,250,5.0,11.0,97,0.00,,,0.00,21.0,meteohub,2013-03-21 01:14:00,
2013-03-20 18:19:00,52.3,51.4,30.03,WNW,302,2.0,11.0,97,0.00,,,0.00,19.0,meteohub,2013-03-21 01:19:00,
2013-03-20 18:24:00,52.2,51.3,30.04,SW,233,4.0,11.0,97,0.00,,,0.00,18.0,meteohub,2013-03-21 01:24:00,
2013-03-20 18:29:00,52.2,51.3,30.04,SW,223,3.0,10.0,97,0.00,,,0.00,18.0,meteohub,2013-03-21 01:29:00,
2013-03-20 18:34:00,52.2,51.6,30.04,SW,220,0.0,10.0,98,0.00,,,0.00,12.0,meteohub,2013-03-21 01:34:00,
2013-03-20 18:39:00,52.2,51.6,30.04,SW,234,2.0,10.0,98,0.00,,,0.00,14.0,meteohub,2013-03-21 01:39:00,
2013-03-20 18:44:00,52.0,51.1,30.04,WSW,244,2.0,9.0,97,0.00,,,0.00,9.0,meteohub,2013-03-21 01:44:00,
2013-03-20 18:50:00,52.0,51.1,30.04,WSW,241,4.0,11.0,97,0.00,,,0.00,5.0,meteohub,2013-03-21 01:50:00,
2013-03-20 18:55:00,52.0,51.1,30.04,West,265,1.0,11.0,97,0.00,,,0.00,5.0,meteohub,2013-03-21 01:55:00,
2013-03-20 19:00:00,52.0,51.1,30.04,WSW,240,0.0,11.0,97,0.00,,,0.00,0.0,meteohub,2013-03-21 02:00:00,
2013-03-20 19:05:00,51.8,51.3,30.04,SW,234,3.0,7.0,98,0.00,,,0.00,0.0,meteohub,2013-03-21 02:05:00,
2013-03-20 19:10:00,51.8,51.3,30.05,SW,225,3.0,7.0,98,0.00,,,0.00,0.0,meteohub,2013-03-21 02:10:00,
2013-03-20 19:15:00,51.6,51.1,30.05,West,273,3.0,6.0,98,0.00,,,0.00,0.0,meteohub,2013-03-21 02:15:00,
2013-03-20 19:20:00,51.6,51.1,30.05,West,273,2.0,7.0,98,0.00,,,0.00,0.0,meteohub,2013-03-21 02:20:00,
2013-03-20 19:25:00,51.6,51.1,30.05,SW,236,2.0,7.0,98,0.00,,,0.00,0.0,meteohub,2013-03-21 02:25:00,
2013-03-20 19:30:00,51.4,50.9,30.05,WNW,290,6.0,7.0,98,0.00,,,0.00,0.0,meteohub,2013-03-21 02:30:00,
2013-03-20 19:35:00,51.4,50.9,30.05,West,269,2.0,9.0,98,0.00,,,0.00,0.0,meteohub,2013-03-21 02:35:00,
2013-03-20 19:40:00,51.4,50.9,30.05,WNW,285,4.0,9.0,98,0.00,,,0.00,0.0,meteohub,2013-03-21 02:40:00,
2013-03-20 19:45:00,51.4,50.9,30.05,WNW,289,6.0,9.0,98,0.00,,,0.00,0.0,meteohub,2013-03-21 02:45:00,
2013-03-20 19:50:00,51.4,50.9,30.05,WNW,299,4.0,9.0,98,0.00,,,0.00,0.0,meteohub,2013-03-21 02:50:00,
2013-03-20 19:55:00,51.4,50.9,30.05,NW,308,6.0,9.0,98,0.00,,,0.00,0.0,meteohub,2013-03-21 02:55:00,
2013-03-20 20:00:00,51.4,50.9,30.05,WNW,302,2.0,9.0,98,0.00,,,0.00,0.0,meteohub,2013-03-21 03:00:00,
2013-03-20 20:05:00,51.6,51.1,30.05,West,279,8.0,10.0,98,0.00,,,0.00,0.0,meteohub,2013-03-21 03:05:00,
2013-03-20 20:10:00,51.4,50.9,30.05,WNW,296,11.0,14.0,98,0.00,,,0.00,0.0,meteohub,2013-03-21 03:10:00,
2013-03-20 20:15:00,51.4,50.9,30.05,WNW,298,8.0,14.0,98,0.00,,,0.00,0.0,meteohub,2013-03-21 03:15:00,
2013-03-20 20:20:00,51.4,50.9,30.05,NW,309,4.0,14.0,98,0.00,,,0.00,0.0,meteohub,2013-03-21 03:20:00,
2013-03-20 20:25:00,51.4,50.9,30.05,WNW,292,3.0,11.0,98,0.00,,,0.00,0.0,meteohub,2013-03-21 03:25:00,
2013-03-20 20:30:00,51.6,51.1,30.05,WNW,285,5.0,11.0,98,0.00,,,0.00,0.0,meteohub,2013-03-21 03:30:00,
2013-03-20 20:35:00,51.6,51.1,30.05,NW,306,5.0,10.0,98,0.00,,,0.00,0.0,meteohub,2013-03-21 03:35:00,
2013-03-20 20:40:00,51.6,51.1,30.06,West,281,1.0,10.0,98,0.00,,,0.00,0.0,meteohub,2013-03-21 03:40:00,
2013-03-20 20:45:00,51.6,51.1,30.06,NW,314,4.0,10.0,98,0.00,,,0.00,0.0,meteohub,2013-03-21 03:45:00,
2013-03-20 20:50:00,51.6,51.1,30.06,NW,319,2.0,10.0,98,0.00,,,0.00,0.0,meteohub,2013-03-21 03:50:00,
2013-03-20 20:55:00,51.6,51.1,30.06,WNW,302,5.0,7.0,98,0.00,,,0.00,0.0,meteohub,2013-03-21 03:55:00,
2013-03-20 21:00:00,51.6,51.1,30.06,WNW,302,4.0,7.0,98,0.00,,,0.00,0.0,meteohub,2013-03-21 04:00:00,
2013-03-20 21:05:00,51.6,51.1,30.06,WNW,289,3.0,9.0,98,0.00,,,0.00,0.0,meteohub,2013-03-21 04:05:00,
2013-03-20 21:10:00,51.6,51.1,30.06,NW,304,3.0,9.0,98,0.00,,,0.00,0.0,meteohub,2013-03-21 04:10:00,
2013-03-20 21:15:00,51.6,51.1,30.06,WNW,297,5.0,7.0,98,0.00,,,0.00,0.0,meteohub,2013-03-21 04:15:00,
2013-03-20 21:20:00,51.4,50.9,30.06,WNW,285,2.0,7.0,98,0.00,,,0.00,0.0,meteohub,2013-03-21 04:20:00,
2013-03-20 21:25:00,51.4,50.9,30.07,WNW,300,4.0,7.0,98,0.00,,,0.00,0.0,meteohub,2013-03-21 04:25:00,
2013-03-20 21:30:00,51.3,50.7,30.07,West,272,4.0,7.0,98,0.00,,,0.00,0.0,meteohub,2013-03-21 04:30:00,
2013-03-20 21:35:00,51.3,50.7,30.07,WNW,299,4.0,7.0,98,0.00,,,0.00,0.0,meteohub,2013-03-21 04:35:00,
2013-03-20 21:40:00,51.1,50.5,30.07,WNW,292,0.0,7.0,98,0.00,,,0.00,0.0,meteohub,2013-03-21 04:40:00,
2013-03-20 21:45:00,51.1,50.5,30.07,WNW,301,0.0,7.0,98,0.00,,,0.00,0.0,meteohub,2013-03-21 04:45:00,
2013-03-20 21:50:00,51.1,50.5,30.07,West,281,4.0,5.0,98,0.00,,,0.00,0.0,meteohub,2013-03-21 04:50:00,
2013-03-20 21:55:00,50.9,50.4,30.07,WNW,290,3.0,7.0,98,0.00,,,0.00,0.0,meteohub,2013-03-21 04:55:00,
2013-03-20 22:00:00,50.9,50.4,30.07,WNW,286,4.0,7.0,98,0.00,,,0.00,0.0,meteohub,2013-03-21 05:00:00,
2013-03-20 22:05:00,50.7,50.2,30.08,WSW,257,7.0,9.0,98,0.00,,,0.00,0.0,meteohub,2013-03-21 05:05:00,
2013-03-20 22:10:00,50.5,50.0,30.08,WNW,302,3.0,11.0,98,0.00,,,0.00,0.0,meteohub,2013-03-21 05:10:00,
2013-03-20 22:15:00,50.5,50.0,30.07,West,275,4.0,11.0,98,0.00,,,0.00,0.0,meteohub,2013-03-21 05:15:00,
2013-03-20 22:20:00,50.4,49.8,30.07,NW,324,6.0,10.0,98,0.00,,,0.00,0.0,meteohub,2013-03-21 05:20:00,
2013-03-20 22:25:00,50.4,49.8,30.07,NW,307,3.0,10.0,98,0.00,,,0.00,0.0,meteohub,2013-03-21 05:25:00,
2013-03-20 22:31:00,50.4,49.8,30.07,NNW,327,1.0,10.0,98,0.00,,,0.00,0.0,meteohub,2013-03-21 05:31:00,
2013-03-20 22:36:00,50.4,49.8,30.07,WSW,255,5.0,10.0,98,0.00,,,0.00,0.0,meteohub,2013-03-21 05:36:00,
2013-03-20 22:41:00,50.4,49.8,30.07,West,271,0.0,9.0,98,0.00,,,0.00,0.0,meteohub,2013-03-21 05:41:00,
2013-03-20 22:46:00,50.4,49.8,30.07,WNW,285,0.0,10.0,98,0.00,,,0.00,0.0,meteohub,2013-03-21 05:46:00,
2013-03-20 22:51:00,50.2,49.6,30.07,WNW,289,8.0,10.0,98,0.00,,,0.00,0.0,meteohub,2013-03-21 05:51:00,
2013-03-20 22:56:00,49.8,49.3,30.07,West,281,6.0,12.0,98,0.00,,,0.00,0.0,meteohub,2013-03-21 05:56:00,
2013-03-20 23:02:00,49.6,48.7,30.07,WNW,292,7.0,12.0,97,0.00,,,0.00,0.0,meteohub,2013-03-21 06:02:00,
2013-03-20 23:07:00,49.5,48.6,30.07,WNW,298,6.0,12.0,97,0.00,,,0.00,0.0,meteohub,2013-03-21 06:07:00,
2013-03-20 23:12:00,49.3,48.7,30.07,WNW,299,12.0,14.0,98,0.00,,,0.00,0.0,meteohub,2013-03-21 06:12:00,
2013-03-20 23:17:00,49.1,48.2,30.06,West,269,7.0,14.0,97,0.00,,,0.00,0.0,meteohub,2013-03-21 06:17:00,
2013-03-20 23:22:00,48.9,48.0,30.06,WNW,284,10.0,14.0,97,0.00,,,0.00,0.0,meteohub,2013-03-21 06:22:00,
2013-03-20 23:27:00,48.7,47.8,30.06,WNW,286,5.0,14.0,97,0.00,,,0.00,0.0,meteohub,2013-03-21 06:27:00,
2013-03-20 23:32:00,48.6,47.7,30.06,WNW,288,10.0,13.0,97,0.00,,,0.00,0.0,meteohub,2013-03-21 06:32:00,
2013-03-20 23:37:00,48.6,47.7,30.06,WNW,302,6.0,13.0,97,0.00,,,0.00,0.0,meteohub,2013-03-21 06:37:00,
2013-03-20 23:42:00,48.4,47.5,30.06,WNW,284,6.0,13.0,97,0.00,,,0.00,0.0,meteohub,2013-03-21 06:42:00,
2013-03-20 23:47:00,48.4,47.5,30.06,West,267,5.0,13.0,97,0.00,,,0.00,0.0,meteohub,2013-03-21 06:47:00,
2013-03-20 23:52:00,48.2,47.3,30.06,West,280,9.0,12.0,97,0.00,,,0.00,0.0,meteohub,2013-03-21 06:52:00,
2013-03-20 23:57:00,48.2,47.3,30.06,WNW,287,5.0,15.0,97,0.00,,,0.00,0.0,meteohub,2013-03-21 06:57:00,